CW9009 Weather Reports


Display with metric or nautical units.
time (UTC)temp
F
wind
direction
speed
MPH
gust
MPH
rain 1hr
in
rain 24hr
in
rain mn
in
humidity
%
barometer
mb
20260904085422 49 231 1.0 2.0 0.00 0.13 0.05 99 1013.0
20260904084423 49 204 1.0 2.0 0.00 0.14 0.05 99 1012.8
20260904083423 49 218 1.0 1.0 0.00 0.15 0.05 99 1013.0
20260904082423 49 233 1.0 1.0 0.00 0.15 0.05 99 1013.1
20260904081423 49 217 2.0 2.0 0.01 0.15 0.05 99 1013.0
20260904080423 49 205 1.0 1.0 0.01 0.15 0.05 99 1013.0
20260904075443 49 93 1.0 2.0 0.01 0.15 0.05 99 1013.1
20260904074423 49 135 1.0 1.0 0.03 0.15 0.05 99 1013.1
20260904073424 49 199 1.0 1.0 0.04 0.17 0.05 99 1013.1
20260904072424 49 197 1.0 1.0 0.04 0.18 0.05 99 1013.2
20260904071424 49 222 1.0 1.0 0.04 0.17 0.04 99 1013.2
20260904070424 49 329 1.0 2.0 0.04 0.17 0.04 98 1013.1
20260904065444 49 203 1.0 2.0 0.03 0.17 0.03 98 1013.2
20260904064425 49 322 2.0 2.0 0.03 0.16 0.02 96 1013.1
20260904063425 49 343 2.0 3.0 0.01 0.14 0.01 96 1013.3
20260904062425 50 337 1.0 2.0 0.01 0.14 0.00 95 1013.2
20260904061425 50 352 2.0 2.0 0.01 0.14 0.00 94 1013.5
20260904060426 50 337 1.0 2.0 0.01 0.13 0.00 94 1013.3
20260904055426 50 342 2.0 3.0 0.01 0.13 0.13 93 1013.0
20260904054426 51 273 2.0 3.0 0.00 0.13 0.13 95 1013.1
20260904053426 51 277 2.0 3.0 0.00 0.13 0.13 93 1012.7
20260904052426 51 238 2.0 3.0 0.01 0.13 0.13 91 1013.0
20260904051507 51 238 2.0 4.0 0.01 0.13 0.13 90 1012.7
20260904050427 51 270 1.0 3.0 0.01 0.13 0.13 89 1012.8
20260904045427 51 323 2.0 3.0 0.01 0.13 0.13 88 1013.1
20260904044447 51 319 2.0 4.0 0.01 0.13 0.13 88 1013.2
20260904043428 52 351 1.0 2.0 0.00 0.12 0.12 85 1013.0
20260904042428 52 54 2.0 3.0 0.00 0.12 0.12 83 1013.1
20260904041428 53 327 2.0 3.0 0.00 0.12 0.12 81 1012.8
20260904040428 53 346 3.0 3.0 0.00 0.12 0.12 81 1012.7
20260904035428 54 317 2.0 3.0 0.00 0.12 0.12 80 1012.6
20260904034428 54 344 3.0 4.0 0.00 0.12 0.12 79 1012.2
20260904033429 55 352 2.0 3.0 0.00 0.12 0.12 79 1012.0
20260904032449 56 354 2.0 3.0 0.00 0.12 0.12 78 1011.5
20260904031416 57 342 1.0 2.0 0.00 0.12 0.12 78 1011.2
20260904030417 58 239 1.0 2.0 0.00 0.12 0.12 78 1010.9
20260904025417 59 334 2.0 3.0 0.00 0.12 0.12 78 1010.4
20260904024417 62 322 3.0 4.0 0.00 0.12 0.12 80 1009.9
20260904023417 63 283 3.0 4.0 0.00 0.12 0.12 80 1009.3
20260904022417 64 268 1.0 2.0 0.00 0.12 0.12 80 1009.0
20260904021417 65 47 0.0 0.0 0.00 0.12 0.12 79 1008.7
20260904020417 66 0.0 0.0 0.00 0.12 0.12 78 1008.5
20260904015417 67 299 1.0 2.0 0.00 0.12 0.12 75 1008.4
20260904014418 68 312 1.0 1.0 0.00 0.12 0.12 75 1008.2
20260904013431 69 0 0.0 0.0 0.00 0.12 0.12 75 1008.1
20260904012431 69 315 1.0 1.0 0.00 0.12 0.12 75 1008.0
20260904011418 70 0 0.0 0.0 0.00 0.12 0.12 74 1008.0
20260904010438 70 0.0 0.0 0.00 0.12 0.12 73 1008.0
20260904005438 71 287 0.0 1.0 0.00 0.12 0.12 72 1008.0
20260904004419 71 0 0.0 0.0 0.00 0.12 0.12 72 1008.0
20260904003419 72 292 0.0 1.0 0.00 0.12 0.12 70 1008.0
20260904002419 72 310 0.0 1.0 0.00 0.12 0.12 70 1008.1
20260904001419 73 0.0 0.0 0.00 0.12 0.12 69 1008.1
20260904000420 73 280 2.0 2.0 0.00 0.12 0.12 68 1008.0
20260903235419 74 0.0 0.0 0.00 0.12 0.12 68 1008.2
20260903234419 74 0.0 0.0 0.00 0.12 0.12 68 1008.1
20260903233440 74 0.0 0.0 0.00 0.12 0.12 67 1008.4
20260903232420 75 265 2.0 3.0 0.00 0.12 0.12 67 1008.5
20260903231440 75 0.0 0.0 0.00 0.12 0.12 67 1008.7
20260903230421 76 274 1.0 1.0 0.00 0.12 0.12 65 1008.7
20260903225421 75 277 1.0 2.0 0.00 0.12 0.12 64 1008.7
20260903224421 75 269 3.0 4.0 0.00 0.12 0.12 60 1008.8
20260903223422 76 262 4.0 5.0 0.00 0.12 0.12 59 1008.8
20260903222501 76 277 1.0 2.0 0.00 0.12 0.12 58 1009.0
20260903221421 77 0 0.0 0.0 0.00 0.12 0.12 58 1008.8
20260903220421 77 292 1.0 2.0 0.00 0.12 0.12 58 1009.0
20260903215422 77 0 0.0 0.0 0.00 0.12 0.12 54 1009.2
20260903214422 77 276 2.0 3.0 0.00 0.12 0.12 55 1009.3
20260903213422 77 260 1.0 3.0 0.00 0.12 0.12 54 1009.5
20260903212422 77 279 0.0 1.0 0.00 0.12 0.12 55 1009.6
20260903211422 77 63 1.0 2.0 0.00 0.12 0.12 54 1009.7
20260903210422 77 73 2.0 4.0 0.00 0.12 0.12 55 1009.8
20260903205423 76 117 1.0 2.0 0.00 0.12 0.12 57 1009.9
20260903204423 75 0.0 0.0 0.00 0.12 0.12 54 1010.3
20260903203423 74 274 2.0 2.0 0.00 0.12 0.12 58 1010.4
20260903202443 74 297 1.0 2.0 0.00 0.12 0.12 55 1010.7
20260903201423 74 261 2.0 3.0 0.00 0.12 0.12 57 1010.8
20260903200504 74 0.0 0.0 0.00 0.12 0.12 59 1010.9
20260903195423 73 276 1.0 2.0 0.00 0.12 0.12 58 1011.1
20260903194424 73 0.0 0.0 0.00 0.12 0.12 59 1011.2
20260903193424 72 113 2.0 2.0 0.00 0.12 0.12 59 1011.4
20260903192424 72 86 1.0 3.0 0.00 0.12 0.12 59 1011.5
20260903191424 71 304 0.0 1.0 0.00 0.12 0.12 60 1011.7
20260903190424 71 69 1.0 2.0 0.00 0.12 0.12 62 1012.0
20260903185425 0 88 2.0 3.0 0.00 0.12 0.12
20260903184425 70 196 1.0 2.0 0.00 0.12 0.12 65 1012.5
20260903183425 69 309 0.0 1.0 0.00 0.12 0.12 67 1012.6
20260903182426 69 113 1.0 3.0 0.00 0.12 0.12 68 1012.7
20260903181427 68 103 2.0 3.0 0.00 0.12 0.12 69 1012.7
20260903180426 68 47 1.0 1.0 0.00 0.12 0.12 69 1012.7
20260903175426 67 118 2.0 3.0 0.00 0.12 0.12 70 1012.8
20260903174426 67 77 2.0 3.0 0.00 0.12 0.12 73 1012.8
20260903173426 66 89 3.0 5.0 0.00 0.12 0.12 74 1013.1
20260903172427 65 79 3.0 3.0 0.00 0.12 0.12 74 1013.2
20260903171427 65 53 1.0 2.0 0.00 0.12 0.12 78 1013.4
20260903170426 64 81 1.0 2.0 0.00 0.12 0.12 79 1013.5
20260903165427 64 95 2.0 3.0 0.00 0.12 0.12 79 1013.5
20260903164427 63 95 2.0 3.0 0.00 0.12 0.12 80 1013.4
20260903163427 62 83 2.0 3.0 0.00 0.12 0.12 83 1013.5
20260903162427 62 119 3.0 3.0 0.00 0.12 0.12 85 1013.5
20260903161428 61 96 2.0 4.0 0.00 0.12 0.12 89 1013.4
20260903160428 61 139 2.0 2.0 0.00 0.12 0.12 91 1013.5
20260903155428 60 126 2.0 2.0 0.00 0.12 0.12 91 1013.6
20260903154428 60 0.0 0.0 0.00 0.12 0.12 94 1013.6
20260903153508 59 125 2.0 2.0 0.00 0.12 0.12 94 1013.7
20260903152428 59 84 1.0 1.0 0.00 0.12 0.12 96 1013.7
20260903151429 59 119 2.0 2.0 0.00 0.12 0.12 98 1013.8
20260903150429 58 180 0.0 1.0 0.00 0.12 0.12 98 1013.7
20260903145428 58 0 0.0 0.0 0.00 0.12 0.12 98 1013.7
20260903144429 58 0.0 0.0 0.00 0.12 0.12 98 1013.7
20260903143429 58 129 2.0 2.0 0.00 0.12 0.12 98 1013.6
20260903142429 58 81 2.0 2.0 0.00 0.12 0.12 98 1013.6
20260903141430 58 75 1.0 2.0 0.00 0.12 0.12 98 1013.5
20260903140430 58 122 1.0 2.0 0.00 0.12 0.12 98 1013.5
20260903135430 57 124 1.0 2.0 0.00 0.12 0.12 96 1013.4
20260903134430 57 0.0 0.0 0.00 0.12 0.12 95 1013.6
20260903133430 58 0 0.0 0.0 0.00 0.12 0.12 94 1013.4
20260903132430 58 0.0 0.0 0.00 0.12 0.12 91 1013.2
20260903131430 58 111 0.0 1.0 0.00 0.12 0.12 93 1013.1
20260903130431 58 0 0.0 0.0 0.00 0.12 0.12 93 1012.8
20260903125431 58 0.0 0.0 0.00 0.12 0.12 90 1012.7
20260903124431 58 114 3.0 3.0 0.00 0.12 0.12 90 1012.6
20260903123431 58 97 3.0 3.0 0.00 0.14 0.12 90 1012.7
20260903122431 58 105 3.0 5.0 0.00 0.14 0.12 91 1012.7
20260903121417 58 108 2.0 3.0 0.00 0.14 0.12 91 1012.7
20260903120417 58 107 3.0 4.0 0.00 0.14 0.12 91 1013.0
20260903115437 58 95 2.0 3.0 0.01 0.14 0.12 91 1012.8
20260903114437 58 114 2.0 2.0 0.01 0.14 0.12 91 1012.8
20260903113418 58 118 2.0 3.0 0.03 0.14 0.12 91 1012.7
20260903112417 58 0 0.0 0.0 0.03 0.14 0.12 93 1013.0
20260903111438 58 111 3.0 3.0 0.03 0.14 0.12 91 1013.0
20260903110418 58 129 2.0 2.0 0.03 0.14 0.11 93 1012.8
20260903105418 58 99 1.0 2.0 0.03 0.13 0.11 93 1013.0
20260903104438 58 107 1.0 3.0 0.03 0.13 0.11 93 1013.1
20260903103418 59 0.0 0.0 0.03 0.11 0.09 94 1013.2
20260903102418 59 0 0.0 0.0 0.03 0.11 0.09 93 1013.1
20260903101419 58 106 2.0 2.0 0.03 0.10 0.08 94 1012.8
20260903100419 59 103 2.0 3.0 0.03 0.10 0.08 93 1013.0
20260903095419 58 113 1.0 2.0 0.03 0.10 0.08 93 1013.1
20260903094419 58 0.0 0.0 0.04 0.10 0.08 94 1013.4
20260903093419 58 0.0 0.0 0.03 0.09 0.07 94 1013.3
20260903092420 59 0.0 0.0 0.02 0.08 0.06 93 1013.3
20260903091420 59 103 1.0 2.0 0.02 0.07 0.05 93 1013.4
20260903090420 59 257 1.0 1.0 0.02 0.07 0.05 91 1013.3